This is the latest recevied weather packets stored in our database for station/object SQ5OUZ-1. If no packets are shown the sender has not sent any weather packets the latest 10 day(s).
| Time | Temp. | Humidity | Pressure | Rain* | Wind** | Luminosity | Snow |
|---|---|---|---|---|---|---|---|
| 1778004486 | 23.33° C | 24% | 1007.1 hPa | - | - | - | - |
| 1778003582 | 23.89° C | 23% | 1007.1 hPa | - | - | - | - |
| 1778002679 | 24.44° C | 23% | 1007.1 hPa | - | - | - | - |
| 1778001776 | 25° C | 22% | 1007 hPa | - | - | - | - |
| 1778000873 | 25° C | 21% | 1007 hPa | - | - | - | - |
| 1777999401 | 25.56° C | 19% | 1007.2 hPa | - | - | - | - |
| 1777998497 | 25.56° C | 19% | 1007.2 hPa | - | - | - | - |
| 1777997594 | 25.56° C | 18% | 1007.4 hPa | - | - | - | - |
| 1777996691 | 26.11° C | 17% | 1007.4 hPa | - | - | - | - |
| 1777995788 | 26.11° C | 17% | 1007.6 hPa | - | - | - | - |
| 1777994884 | 26.11° C | 17% | 1007.8 hPa | - | - | - | - |
| 1777993981 | 26.67° C | 17% | 1007.9 hPa | - | - | - | - |
| 1777993078 | 26.67° C | 17% | 1008 hPa | - | - | - | - |
| 1777992174 | 27.22° C | 16% | 1008 hPa | - | - | - | - |
| 1777991271 | 27.22° C | 17% | 1008.3 hPa | - | - | - | - |
| 1777990368 | 27.78° C | 16% | 1008.4 hPa | - | - | - | - |
| 1777989465 | 27.78° C | 17% | 1008.5 hPa | - | - | - | - |
| 1777988561 | 27.78° C | 16% | 1008.6 hPa | - | - | - | - |
| 1777987658 | 27.78° C | 16% | 1008.6 hPa | - | - | - | - |
| 1777986755 | 27.78° C | 16% | 1008.9 hPa | - | - | - | - |
| 1777985852 | 27.78° C | 17% | 1008.9 hPa | - | - | - | - |
| 1777984948 | 27.78° C | 19% | 1009 hPa | - | - | - | - |
| 1777984045 | 27.22° C | 18% | 1009.1 hPa | - | - | - | - |
| 1777983142 | 27.78° C | 18% | 1009.3 hPa | - | - | - | - |
| 1777982239 | 27.78° C | 17% | 1009.5 hPa | - | - | - | - |
* Rain since midnight (hover to see other rain measurements)
** Current wind speed in m/s (hover to see current wind gust speed)